COSMOS 2251 DEB, 35959

Orbit data source: Space-Track

COSMOS 2251 DEB, 35959 is space debris in LEO originally from a launch on Wed, 16 Jun 1993 UTC launched from the Plesetsk Missile And Space Complex (PKMTR). The debris from Iridium 33, an American commercial communications satellite, has been tracked extensively since its accidental collision with the defunct Russian satellite Cosmos 2251 in 2009. This event, occurring at high speed in low Earth orbit (LEO), generated thousands of pieces of space debris, significantly increasing the risk of further collisions. The Iridium 33 debris cloud has impacted space traffic management and orbital debris mitigation strategies, making it a subject of ongoing study in space situational awareness.

Loading next visibility...
Identifier
35959, 1993-036AUZ
Orbit
LEO
Country
Flag of CISCIS
Related business
Manufacturer
Unknown
Mission
Spacecraft
Bus & Motor
Unknown
Mass
Unknown
Launch date (UTC)
1993-06-16 (33 years ago)
Launch vehicle
Unknown
Launch site
Plesetsk Missile And Space Complex (PKMTR)
Object type
Payload
Rocket body
Debris
Shape & HBR
Unknown shape, 0.1 m
Radar Cross Section
Small (<0.1 m²)

Expand to show TLE details & history
Last TLE update: 1 day ago

TLE from 1 day ago
0 COSMOS 2251 DEB
1 35959U 93036AUZ 26247.50533583  .00000117  00000-0  50746-4 0  9990
2 35959  74.0331 185.4737 0022952 207.4500 152.5441 14.34284373887389
Epoch: 2026-09-04T12:07Z
TLE epoch observation values (Epoch: 2026-09-04T12:07:41.015Z)
Latitude
-0.00007°
Longitude
19.92459°
Altitude
794.638 km
Speed
7.449 km/s
True Right ascension
12h 21m 53s
True Declination
0° 00' 00"
Sunlit
Object was in daylight at epoch
Visualization orbit readout
Latitude
Unknown
Longitude
Unknown
Altitude
Unknown
Speed
Unknown
Apparent Right ascension
Unknown
Apparent Declination
Unknown
Sunlit
N/A
Visualization observer readout
Local Sidereal Time
06:40:35
Azimuth
Unknown
Elevation
Unknown
Doppler factor
Unknown
Orbital elements
Apogee altitude
791.49 km
Perigee altitude
758.654 km
Semi-major axis
7,153.209 km
Eccentricity
0.0023
Inclination
74.0331°
RAAN
185.4737°
Arg. of periapsis
207.45°
True anomaly
152.66506°
Mean anomaly
152.5441°
Eccentric anomaly
152.60461°
Mean motion
3.5875 °/min
Orbital period
100.35 mins
BSTAR
0.000050746
Loading maneuver chart data...
Computing Atmospheric mass density...

Documentation

Showing up to 5 results
|